Regional Weather Roundup
Issued by NWS

Home | Current Version | Previous Version | Text Only | Print | Product List | Glossary On
Versions: 1 2 3 4 5 6 7 8 9 10 11 12 13 14 15 16 17 18 19 20 21 22 23 24 25 26 27 28 29 30 31 32 33 34 35 36 37 38 39 40 41 42 43 44 45 46 47 48 49 50
000
ASUS43 KTOP 092308
RWRKS

WEATHER ROUNDUP FOR KANSAS
NATIONAL WEATHER SERVICE GOODLAND KS
500 PM CST TUE FEB 09 2016

NOTE:  "FAIR" INDICATES FEW OR NO CLOUDS BELOW 12,000 FEET WITH NO
SIGNIFICANT WEATHER AND/OR OBSTRUCTIONS TO VISIBILITY.

KSZ001>006-013>018-027>032-041>047-100000-
NORTHWEST KANSAS

CITY           SKY/WX    TMP DP  RH WIND       PRES   REMARKS
GOODLAND       SUNNY     46  31  55 NW9       30.22F
HAYS           MOSUNNY   36  16  44 NE5       30.28F
HILL CITY      PTSUNNY   39  22  50 CALM      30.26F
RUSSELL        CLOUDY    33  19  56 N8        30.28S
$$

KSZ061>065-074>080-084>089-100000-
SOUTHWEST KANSAS

CITY           SKY/WX    TMP DP  RH WIND       PRES   REMARKS
DODGE CITY     SUNNY     46  20  35 VRB5      30.26F
ELKHART          N/A     59  26  28 NW13        N/A
GARDEN CITY    SUNNY     50  27  40 N10       30.25R
GREAT BEND     CLOUDY    37  18  44 N9        30.29F
LIBERAL        PTSUNNY   55  28  35 N12       30.27R
PRATT          CLOUDY    39  19  43 N13       30.28S WCI  32
$$

KSZ066>073-081>083-090>101-100000-
SOUTHEAST KANSAS

CITY           SKY/WX    TMP DP  RH WIND       PRES   REMARKS
CHANUTE        CLOUDY    35   8  32 N16       30.26R WCI  25
COFFEYVILLE    CLEAR     38   9  30 N16G30    30.26R WCI  29
HUTCHINSON     CLOUDY    37  16  42 N15       30.30R WCI  28
MEDICINE LODGE   N/A     46  20  35 N12       30.28S
NEWTON         SUNNY     36  12  38 NW16G24   30.30R WCI  26
PARSONS        CLEAR     37   8  30 NW18      30.25R WCI  27
WICHITA INTL   CLOUDY    39  16  39 NW20      30.29R WCI  29
WICHITA JABRA  SUNNY     37  15  40 N24G30    30.28R WCI  26
WICHITA MCCONL CLOUDY    38  16  41 N14G22    30.28R WCI  30
WINFIELD       SUNNY     41  17  38 NW16G25   30.29R
$$

KSZ007>012-019>026-033>040-048>060-102>105-100000-
NORTHEAST KANSAS

CITY           SKY/WX    TMP DP  RH WIND       PRES   REMARKS
CONCORDIA      CLEAR     29  10  45 NW13      30.30S WCI  19
EMPORIA        CLEAR     31   8  38 N17G24    30.26R WCI  19
LAWRENCE       CLEAR     29   3  33 N21       30.27R WCI  16
MANHATTAN      CLOUDY    30   8  39 N10       30.31S WCI  21
MARYSVILLE     MOCLDY    28  12  50 NW15      30.27S WCI  17
OLATHE IND     CLEAR     27   3  35 NW18G26   30.24R WCI  14
OLATHE EXE     CLEAR     27   2  34 NW16G23   30.23R WCI  15
SALINA         SUNNY     34  12  40 NW16      30.32R WCI  24
TOPEKA BILLARD CLEAR     30   3  31 N18G25    30.28R WCI  18
TOPEKA FORBES  CLEAR     30   3  31 N21G33    30.26R WCI  17
$$



USA.gov is the U.S. government's official web portal to all federal, state and local government web resources and services.